STARLINK-11532, 62596

Orbit data source: Space-Track

STARLINK-11532, 62596 is a payload satellite owned by SpaceX/Seattle (US) in LEO that was launched on Mon, 13 Jan 2025 UTC via an FALCON 9 launch vehicle from the Air Force Eastern Test Range (AFETR). Payloads include a variety of satellites, spacecraft, and rockets equipped with specific instruments for various scientific and technological missions. These include communications satellites like Starlink; space stations such as the ISS; scientific satellites like the Hubble; Earth observation satellites from companies like Planet Labs, Umbra, and HawkEye 360; GPS; miniature CubeSats for education and research; and military/defense satellites.

Loading next visibility...
STARLINK-11532 details
Identifier
62596, 2025-008K
Orbit
LEO
Last TLE update11 hours ago
Origin
Flag of USSpaceX/Seattle (US)
ManufacturerSpaceX/Seattle
MissionOperational spacecraft
Bus & MotorSTARLINK V2M, Unknown motor
Mass730 kg wet, ~700 kg dry
Launch date (UTC)
2025-01-13 (1 month ago)
Launch vehicle
FALCON 9
Launch site
Air Force Eastern Test Range (AFETR)
Object type
Payload
Rocket body
Debris
Shape & HBRUnknown
Radar Cross SectionLarge (>1 m²)

Expand to show TLE details & history

TLE from 11 hours ago
0 STARLINK-11532
1 62596U 25008K   25047.04728911 -.00001156  00000-0 -37787-5 0  9995
2 62596  42.9965 297.7867 0001760 275.4437  84.6232 15.77850264  6238
Epoch: 2025-02-16T01:08Z
Definitive object data (Epoch: 2025-02-16T01:08:05.779Z)
Latitude-0.00003°
Longitude134.47664°
Altitude336.192 km
Speed7.709 km/s
True Right ascension19h 51m 08s
True Declination0° 00' 00"
Sunlit
Object was in daylight at TLE epoch
Visualization TLE readout
Latitude4.90713°
Longitude137.02218°
Altitude335.774 km
Speed7.709 km/s
Apparent Right ascension22h 37m 21s
Apparent Declination-24° 26' 20"
Sunlit
Object is in daylight
Visualization observer readout
Local Sidereal Time14:34:23
Azimuth91.371° ESE
Elevation-38.491°
Doppler factor1
Orbital elements
Apogee altitude339.703 km
Perigee altitude337.339 km
Semi-major axis6,716.658 km
Eccentricity0.000176
Inclination42.9965°
RAAN297.7867°
Arg. of periapsis275.4437°
True anomaly84.64328°
Mean anomaly84.6232°
Eccentric anomaly84.63324°
Mean motion3.94288 °/min
BSTAR-0.0000037787
Orbital period91.3 mins
Loading maneuver chart data...
Loading historical data...
Loading historical data...
Loading historical data...
Loading historical data...
Loading historical data...
Loading historical data...
Loading historical data...

STARLINK-11532 Visibility forecast

Observer location: undefined°, undefined

Span
Click to sort rows by Start time (UTC) header in descending order
Start Az.
Max El. time (UTC)
Max El. Az.
Max El.
End time (UTC)
End Az.
4 mins2025-02-16 19:33:58.244Z198.017° SSW2025-02-16 19:35:58.244Z149.062° SSE19.83°2025-02-16 19:37:58.244Z99.226° ESE
4 mins2025-02-16 21:09:58.244Z261.744° W2025-02-16 21:10:58.244Z277.709° WNW39.423°2025-02-16 21:13:58.244Z69.552° E
4 mins2025-02-16 22:45:58.244Z302.98° NW2025-02-16 22:46:58.244Z339.582° N32.407°2025-02-16 22:49:58.244Z74.427° E
|